Regional Weather Roundup
Issued by NWS

Home | Current Version | Previous Version | Graphics & Text | Print | Product List | Glossary On
Versions: 1 2 3 4 5 6 7 8 9 10 11 12 13 14 15 16 17 18 19 20 21 22 23 24 25 26 27 28 29 30 31 32 33 34 35 36 37 38 39 40 41 42 43 44 45 46 47 48 49 50
173
ASUS45 KBOI 251610
RWRID

IDAHO REGIONAL WEATHER ROUNDUP
NATIONAL WEATHER SERVICE BOISE ID
1000 AM MDT SUN JUN 25 2017

NOTE: "FAIR" INDICATES FEW OR NO CLOUDS BELOW 12000 FEET
WITH NO SIGNIFICANT WEATHER AND/OR OBSTRUCTIONS TO VISIBILITY

IDZ012-014-251700-
SOUTHWEST IDAHO


CITY           SKY/WX    TMP DP  RH WIND       PRES   REMARKS
BOISE          SUNNY     77  42  28 S10       30.13F
CALDWELL       SUNNY     74  47  38 SE6       30.13S
MOUNTAIN HOME  SUNNY     75  36  24 SE15      30.15S
$$

IDZ016-017-251700-
SOUTHCENTRAL IDAHO


CITY           SKY/WX    TMP DP  RH WIND       PRES   REMARKS
BURLEY         SUNNY     70  49  47 E9        30.22S
JEROME         SUNNY     73  44  35 E8        30.22S
TWIN FALLS     SUNNY     73  46  38 NE7       30.22S
$$

IDZ019>023-251700-
SOUTHEAST IDAHO


CITY           SKY/WX    TMP DP  RH WIND       PRES   REMARKS
IDAHO FALLS    SUNNY     68  47  46 N6        30.29S
POCATELLO      SUNNY     67  51  56 NW5       30.27S
REXBURG        SUNNY     66  46  48 E5        30.30S
$$

IDZ006-010-011-018-031-032-251700-
CENTRAL IDAHO MOUNTAINS


CITY           SKY/WX    TMP DP  RH WIND       PRES   REMARKS
MCCALL         SUNNY     65  43  44 S5        30.23F
HAILEY         SUNNY     70  43  37 NW7       30.31S
STANLEY          N/A     60  37  42 VRB3      30.38F
SALMON         SUNNY     64  45  48 MISG      30.29R
CHALLIS        SUNNY     65  38  36 NE3       30.31F
$$

IDZ002-004-006-007-026-251700-
NORTHERN IDAHO


CITY           SKY/WX    TMP DP  RH WIND       PRES   REMARKS
LEWISTON       SUNNY     73  48  41 NE7       30.08F
LOWELL           N/A     65  52  62 CALM      30.13F
COEUR D`ALENE  SUNNY     71  48  43 N14       30.15F
MULLAN PASS    SUNNY     62  37  39 SE8       30.33S
$$




USA.gov is the U.S. government's official web portal to all federal, state and local government web resources and services.